Location: Boiro
(42.6475°N, 8.8834°W)
Time: 19:52:45
(UTC+02:00)

AO-73 - Pass Details

Date: 04 May 2024
Orbit: 560 x 625 km, 97.7° (Epoch: 20 May)

Event Time Altitude Azimuth Distance (km) Brightness Sun altitude
Rises 05:58:59 0° 10° (N) 2,923 ? -14.5°
Reaches altitude 10° 06:01:12 10° 8° (N) 2,010 ? -14.2°
Maximum altitude 06:05:33 69° 286° (WNW) 670 ? -13.6°
Enters shadow 06:08:55 16° 204° (SSW) 1,605 ? -13.1°
